Regional Weather Roundup
Issued by NWS Sioux Falls, SD

Home | Current Version | Previous Version | Graphics & Text | Print | Product List | Glossary On
Versions: 1 2 3 4 5 6 7 8 9 10 11 12 13 14 15 16 17 18 19 20 21 22 23 24 25 26 27 28 29 30 31 32 33 34 35 36 37 38 39 40 41 42 43 44 45 46 47 48 49 50
000
ASUS43 KFSD 272202
RWRFSD

WEATHER ROUNDUP FOR SE SOUTH DAKOTA/SW MINNESOTA/NW IOWA
NATIONAL WEATHER SERVICE SIOUX FALLS SD
500 PM CDT FRI MAY 27 2016

NOTE: "FAIR" INDICATES FEW OR NO CLOUDS BELOW 12,000 FEET WITH NO
SIGNIFICANT WEATHER AND OR OBSTRUCTIONS TO VISIBILITY.


SDZ038>040-050-052>070-272300-
SOUTHEAST SOUTH DAKOTA

CITY           SKY/WX    TMP DP  RH WIND       PRES   REMARKS
CHAMBERLAIN    NOT AVBL
HURON          PTSUNNY   71  57  61 MISG      29.75F
MADISON        FAIR      66  64  94 NE10      29.76F
MITCHELL       MOSUNNY   72  59  63 NE6       29.75F
SIOUX FALLS    PTSUNNY   75  58  55 MISG      29.72F
WINNER         FAIR      69  52  54 NE8       29.78F
YANKTON        PTSUNNY   73  59  60 NW6       29.70F
$$

MNZ071-072-080-081-089-090-097-098-272300-
SOUTHWEST MINNESOTA

CITY           SKY/WX    TMP DP  RH WIND       PRES   REMARKS
FAIRMONT       PTSUNNY   73  59  60 W5        29.73F
JACKSON        MOSUNNY   75  54  46 NW8       29.74F
LUVERNE        SUNNY     73  54  49 CALM      29.74F
MARSHALL       CLOUDY    73  56  54 W5        29.74F
MONTEVIDEO     MOSUNNY   77  63  61 CALM      29.76F
PIPESTONE      SUNNY     72  55  56 N6        29.75F
REDWOOD FALLS  CLOUDY    67  62  84 CALM      29.75F
TRACY          LGT RAIN  71  58  64 NE3       29.76S
WINDOM         MOSUNNY   73  55  53 CALM      29.74F
WORTHINGTON    MOSUNNY   72  58  61 CALM      29.74F
$$

IAZ001>003-012>014-020>022-031-032-NEZ013-014-SDZ071-272300-
NORTHWEST IOWA

CITY           SKY/WX    TMP DP  RH WIND       PRES   REMARKS
ESTHERVILLE    MOSUNNY   74  57  55 W8        29.73F
SIOUX CITY     CLOUDY    78  59  51 VRB5      29.69F
SPENCER        MOSUNNY   76  55  48 SW6       29.72F
STORM LAKE     SUNNY     75  54  46 VRB5      29.72F
$$

ABBREVIATIONS USED IN REMARKS
   TC - TEMPERATURE IN CELSIUS
  WCI - WIND CHILL INDEX
   HX - HEAT INDEX
  VSB - VISIBILITY





USA.gov is the U.S. government's official web portal to all federal, state and local government web resources and services.